Terug naar catalogus

FENGYUN 1C DEB

ActiefSSO
NORAD 29763·DEBRIS·🇨🇳 China

Gelanceerd May 10, 1999 vanaf Taiyuan Satellite Launch Center

Loading…

Volgende Passages (komende 24 uur)

TLE

VersSource: Space-Track

Epoch: Sep 14, 2026, 16:48 UTC

1 29763U 99025BD  26257.70058387  .00000268  00000-0  16867-3 0  9999
2 29763  98.7918 234.5747 0128081 122.5205  51.2990 14.08071392  9347

Volg FENGYUN 1C DEB in realtime met AllMySat

Download on the App Store